Regional Weather Roundup
Issued by NWS Sioux Falls, SD

Home | Current Version | Previous Version | Graphics & Text | Print | Product List | Glossary Off
Versions: 1 2 3 4 5 6 7 8 9 10 11 12 13 14 15 16 17 18 19 20 21 22 23 24 25 26 27 28 29 30 31 32 33 34 35 36 37 38 39 40 41 42 43 44 45 46 47 48 49 50

000
ASUS43 KFSD 030502
RWRFSD

WEATHER ROUNDUP FOR SE SOUTH DAKOTA/SW MINNESOTA/NW IOWA
NATIONAL WEATHER SERVICE SIOUX FALLS SD
1200 AM CDT WED SEP 03 2014

NOTE: "FAIR" INDICATES FEW OR NO CLOUDS BELOW 12,000 FEET WITH NO
SIGNIFICANT WEATHER AND OR OBSTRUCTIONS TO VISIBILITY.


SDZ038>040-050-052>070-030600-
SOUTHEAST SOUTH DAKOTA

CITY           SKY/WX    TMP DP  RH WIND       PRES   REMARKS
CHAMBERLAIN    PTCLDY    66  59  78 SE9       29.78S
HURON          CLEAR     65  59  81 S8        29.79F
MADISON        FAIR      61  61 100 S9        29.87F
MITCHELL       PTCLDY    67  60  78 S13       29.82F
SIOUX FALLS    CLEAR     67  57  70 S13       29.88S
WINNER         FAIR      71  60  68 S12       29.78S
YANKTON        CLEAR     64  57  77 SE8       29.86F
$$

MNZ071-072-080-081-089-090-097-098-030600-
SOUTHWEST MINNESOTA

CITY           SKY/WX    TMP DP  RH WIND       PRES   REMARKS
FAIRMONT       PTCLDY    59  54  82 S6        29.92S
JACKSON        PTCLDY    59  55  88 S6        29.93S
LUVERNE        PTCLDY    59  55  88 CALM      29.91S
MARSHALL       CLEAR     63  54  72 S9        29.85F
MONTEVIDEO     PTCLDY    64  57  77 SW10G16   29.84F
PIPESTONE      PTCLDY    59  55  88 SE5       29.89S
REDWOOD FALLS  PTCLDY    61  57  87 S10       29.87F
TRACY          CLEAR     64  57  76 S13       29.88S
WINDOM         CLEAR     63  55  77 S6        29.92S
WORTHINGTON    PTCLDY    61  57  88 S7        29.93S
$$

IAZ001>003-012>014-020>022-031-032-NEZ013-014-SDZ071-030600-
NORTHWEST IOWA

CITY           SKY/WX    TMP DP  RH WIND       PRES   REMARKS
CHEROKEE       PTCLDY    60  59  97 S5        29.94S
DENISON        MOCLDY    63  61  94 SE3       29.94F
ESTHERVILLE    PTCLDY    57  56  96 S8        29.93S
LE MARS          N/A     64  59  82 S7G13     29.91F
ORANGE CITY    PTCLDY    64  55  72 SE5       29.92S
SHELDON        PTCLDY    59  57  94 S8        29.91F
SIOUX CITY     MOCLDY    66  61  84 SE7       29.91F
SPENCER        PTCLDY    61  58  90 S7        29.93S
STORM LAKE     PTCLDY    59  59 100 S7        29.96S
$$

ABBREVIATIONS USED IN REMARKS
   TC - TEMPERATURE IN CELSIUS
  WCI - WIND CHILL INDEX
   HX - HEAT INDEX
  VSB - VISIBILITY



USA.gov is the U.S. government's official web portal to all federal, state and local government web resources and services.